Location: Unspecified
(0.0000°N, 0.0000°E)
Time: 08:14:38
(UTC+01:00)

Cosmos 1295 Rocket - Visible Passes

Search period start: 23 November 2014 00:00
Search period end: 03 December 2014 00:00
Orbit: 943 x 995 km, 82.9° (Epoch: 22 November)

Date Brightness Start Highest point End Pass type
(mag) Time Alt. Az. Time Alt. Az. Time Alt. Az.
23 Nov 4.8 20:44:31 10° SSW 20:50:40 62° W 20:53:24 34° NNW visible
24 Nov 5.6 19:24:36 10° SE 19:29:10 21° E 19:33:16 11° NE visible
24 Nov 6.1 21:08:49 10° SW 21:14:06 29° W 21:17:53 16° NW visible
25 Nov 4.7 19:46:43 10° SSE 19:52:37 45° E 19:57:48 13° NNE visible
25 Nov 7.1 21:34:44 10° WSW 21:37:31 13° W 21:40:16 10° WNW visible
26 Nov 4.4 20:09:49 10° S 20:16:04 87° W 20:22:12 10° N visible
27 Nov 5.6 20:33:42 10° SSW 20:39:29 41° W 20:45:11 10° NNW visible
28 Nov 5.2 19:12:34 10° SSE 19:18:00 32° E 19:23:19 10° NNE visible
28 Nov 6.8 20:58:39 10° SW 21:02:54 19° W 21:07:07 10° NW visible
29 Nov 4.4 19:35:16 10° S 19:41:26 68° E 19:47:30 10° N visible
30 Nov 5.1 19:58:48 10° SSW 20:04:52 58° W 20:10:51 10° N visible
01 Dec 6.4 20:23:11 10° SW 20:28:17 27° W 20:33:21 10° NNW visible
02 Dec 7.2 20:49:27 10° WSW 20:51:42 12° W 20:53:57 10° WNW visible
